Time,TemperatureF,DewpointF,PressureIn,WindDirection,WindDirectionDegrees,WindSpeedMPH,WindSpeedGustMPH,Humidity,HourlyPrecipIn,Conditions,Clouds,dailyrainin,SoftwareType,DateUTC
2013-01-24 00:00:00,-3.6,-13.7,29.88,SSW,208,4.0,22.0,61,0.00,,,0.00,Wunderground v.1.15,2013-01-24 04:00:00,
2013-01-24 00:10:00,-3.8,-13.6,29.87,SW,217,3.0,22.0,62,0.00,,,0.00,Wunderground v.1.15,2013-01-24 04:10:00,
2013-01-24 00:20:00,-3.7,-13.5,29.87,SW,224,6.0,22.0,62,0.00,,,0.00,Wunderground v.1.15,2013-01-24 04:20:00,
2013-01-24 00:30:00,-3.7,-13.5,29.87,SSW,192,5.0,22.0,62,0.00,,,0.00,Wunderground v.1.15,2013-01-24 04:30:00,
2013-01-24 00:40:00,-3.8,-13.2,29.87,West,271,5.0,22.0,63,0.00,,,0.00,Wunderground v.1.15,2013-01-24 04:40:00,
2013-01-24 00:50:00,-3.9,-13.0,29.86,SW,224,5.0,22.0,64,0.00,,,0.00,Wunderground v.1.15,2013-01-24 04:50:00,
2013-01-24 01:00:00,-3.9,-13.0,29.86,West,259,6.0,6.0,64,0.00,,,0.00,Wunderground v.1.15,2013-01-24 05:00:00,
2013-01-24 01:10:00,-3.9,-13.0,29.86,WSW,239,5.0,5.0,64,0.00,,,0.00,Wunderground v.1.15,2013-01-24 05:10:00,
2013-01-24 01:20:00,-4.1,-12.9,29.86,SSW,210,5.0,5.0,65,0.00,,,0.00,Wunderground v.1.15,2013-01-24 05:20:00,
2013-01-24 01:30:00,-4.3,-13.1,29.85,SSW,205,4.0,22.0,65,0.00,,,0.00,Wunderground v.1.15,2013-01-24 05:30:00,
2013-01-24 01:40:00,-4.4,-13.2,29.85,SSW,211,5.0,22.0,65,0.00,,,0.00,Wunderground v.1.15,2013-01-24 05:40:00,
2013-01-24 01:50:00,-4.4,-13.2,29.85,SW,226,7.0,7.0,65,0.00,,,0.00,Wunderground v.1.15,2013-01-24 05:50:00,
2013-01-24 02:00:00,-4.6,-13.4,29.85,SW,221,5.0,5.0,65,0.00,,,0.00,Wunderground v.1.15,2013-01-24 06:00:00,
2013-01-24 02:10:00,-4.8,-13.6,29.85,WSW,253,7.0,7.0,65,0.00,,,0.00,Wunderground v.1.15,2013-01-24 06:10:00,
2013-01-24 02:20:00,-4.9,-13.7,29.85,SSW,196,6.0,22.0,65,0.00,,,0.00,Wunderground v.1.15,2013-01-24 06:20:00,
2013-01-24 02:30:00,-5.0,-13.8,29.86,WSW,249,8.0,22.0,65,0.00,,,0.00,Wunderground v.1.15,2013-01-24 06:30:00,
2013-01-24 02:40:00,-5.2,-14.0,29.85,SW,229,6.0,6.0,65,0.00,,,0.00,Wunderground v.1.15,2013-01-24 06:40:00,
2013-01-24 02:50:00,-5.3,-13.8,29.85,SSW,200,5.0,5.0,66,0.00,,,0.00,Wunderground v.1.15,2013-01-24 06:50:00,
2013-01-24 03:00:00,-5.5,-13.9,29.85,SSW,208,5.0,22.0,66,0.00,,,0.00,Wunderground v.1.15,2013-01-24 07:00:00,
2013-01-24 03:10:00,-5.6,-14.0,29.85,South,190,6.0,6.0,66,0.00,,,0.00,Wunderground v.1.15,2013-01-24 07:10:00,
2013-01-24 03:20:00,-5.6,-14.0,29.84,SW,231,6.0,22.0,66,0.00,,,0.00,Wunderground v.1.15,2013-01-24 07:20:00,
2013-01-24 03:30:00,-5.7,-13.8,29.84,SSW,210,6.0,22.0,67,0.00,,,0.00,Wunderground v.1.15,2013-01-24 07:30:00,
2013-01-24 03:40:00,-5.8,-13.9,29.84,SW,219,6.0,22.0,67,0.00,,,0.00,Wunderground v.1.15,2013-01-24 07:40:00,
2013-01-24 03:50:00,-5.9,-14.0,29.84,West,268,7.0,7.0,67,0.00,,,0.00,Wunderground v.1.15,2013-01-24 07:50:00,
2013-01-24 04:00:00,-5.9,-13.7,29.84,SW,214,6.0,6.0,68,0.00,,,0.00,Wunderground v.1.15,2013-01-24 08:00:00,
2013-01-24 04:10:00,-6.0,-13.8,29.84,SW,226,6.0,6.0,68,0.00,,,0.00,Wunderground v.1.15,2013-01-24 08:10:00,
2013-01-24 04:20:00,-6.0,-13.8,29.84,WSW,242,7.0,22.0,68,0.00,,,0.00,Wunderground v.1.15,2013-01-24 08:20:00,
2013-01-24 04:30:00,-6.1,-13.9,29.84,SW,219,6.0,22.0,68,0.00,,,0.00,Wunderground v.1.15,2013-01-24 08:30:00,
2013-01-24 04:40:00,-6.1,-13.6,29.84,SW,224,5.0,22.0,69,0.00,,,0.00,Wunderground v.1.15,2013-01-24 08:40:00,
2013-01-24 04:50:00,-6.1,-13.6,29.84,SW,215,5.0,5.0,69,0.00,,,0.00,Wunderground v.1.15,2013-01-24 08:50:00,
2013-01-24 05:00:00,-6.1,-13.6,29.84,SW,232,7.0,22.0,69,0.00,,,0.00,Wunderground v.1.15,2013-01-24 09:00:00,
2013-01-24 05:10:00,-6.1,-13.6,29.84,SW,232,5.0,5.0,69,0.00,,,0.00,Wunderground v.1.15,2013-01-24 09:10:00,
2013-01-24 05:20:00,-6.1,-13.6,29.83,SSW,209,6.0,6.0,69,0.00,,,0.00,Wunderground v.1.15,2013-01-24 09:20:00,
2013-01-24 05:30:00,-6.2,-13.7,29.84,SW,222,5.0,5.0,69,0.00,,,0.00,Wunderground v.1.15,2013-01-24 09:30:00,
2013-01-24 05:40:00,-6.3,-13.5,29.84,SSW,208,6.0,6.0,70,0.00,,,0.00,Wunderground v.1.15,2013-01-24 09:40:00,
2013-01-24 05:50:00,-6.4,-13.6,29.83,SSE,151,6.0,22.0,70,0.00,,,0.00,Wunderground v.1.15,2013-01-24 09:50:00,
2013-01-24 06:00:00,-6.5,-13.7,29.84,SSE,155,6.0,6.0,70,0.00,,,0.00,Wunderground v.1.15,2013-01-24 10:00:00,
2013-01-24 06:10:00,-6.6,-13.8,29.84,SW,219,7.0,7.0,70,0.00,,,0.00,Wunderground v.1.15,2013-01-24 10:10:00,
2013-01-24 06:20:00,-6.6,-13.8,29.84,SSW,204,6.0,22.0,70,0.00,,,0.00,Wunderground v.1.15,2013-01-24 10:20:00,
2013-01-24 06:30:00,-6.7,-13.6,29.85,WSW,249,6.0,22.0,71,0.00,,,0.00,Wunderground v.1.15,2013-01-24 10:30:00,
2013-01-24 06:40:00,-6.7,-13.6,29.84,WSW,242,6.0,22.0,71,0.00,,,0.00,Wunderground v.1.15,2013-01-24 10:40:00,
2013-01-24 06:50:00,-6.7,-13.6,29.85,WSW,240,7.0,22.0,71,0.00,,,0.00,Wunderground v.1.15,2013-01-24 10:50:00,
2013-01-24 07:00:00,-6.7,-13.6,29.85,SW,229,6.0,22.0,71,0.00,,,0.00,Wunderground v.1.15,2013-01-24 11:00:00,
2013-01-24 07:10:00,-6.7,-13.6,29.85,SW,225,6.0,6.0,71,0.00,,,0.00,Wunderground v.1.15,2013-01-24 11:10:00,
2013-01-24 07:20:00,-6.8,-13.7,29.85,West,266,5.0,22.0,71,0.00,,,0.00,Wunderground v.1.15,2013-01-24 11:20:00,
2013-01-24 07:30:00,-6.8,-13.7,29.85,SSW,210,5.0,5.0,71,0.00,,,0.00,Wunderground v.1.15,2013-01-24 11:30:00,
2013-01-24 07:40:00,-6.7,-13.4,29.85,WSW,239,5.0,5.0,72,0.00,,,0.00,Wunderground v.1.15,2013-01-24 11:40:00,
2013-01-24 07:50:00,-6.6,-13.3,29.85,SSW,212,6.0,22.0,72,0.00,,,0.00,Wunderground v.1.15,2013-01-24 11:50:00,
2013-01-24 08:00:00,-6.5,-13.2,29.86,SSW,201,5.0,5.0,72,0.00,,,0.00,Wunderground v.1.15,2013-01-24 12:00:00,
2013-01-24 08:10:00,-6.1,-12.8,29.86,SSW,204,6.0,22.0,72,0.00,,,0.00,Wunderground v.1.15,2013-01-24 12:10:00,
2013-01-24 08:20:00,-6.2,-12.9,29.86,SW,219,6.0,6.0,72,0.00,,,0.00,Wunderground v.1.15,2013-01-24 12:20:00,
2013-01-24 08:30:00,-6.2,-12.9,29.86,WSW,251,5.0,22.0,72,0.00,,,0.00,Wunderground v.1.15,2013-01-24 12:30:00,
2013-01-24 08:40:00,-6.0,-12.7,29.87,WSW,242,5.0,5.0,72,0.00,,,0.00,Wunderground v.1.15,2013-01-24 12:40:00,
2013-01-24 08:50:00,-5.7,-12.4,29.87,SSW,203,4.0,4.0,72,0.00,,,0.00,Wunderground v.1.15,2013-01-24 12:50:00,
2013-01-24 09:00:00,-4.5,-11.5,29.87,SSE,167,5.0,22.0,71,0.00,,,0.00,Wunderground v.1.15,2013-01-24 13:00:00,
2013-01-24 09:10:00,-3.7,-11.3,29.86,SW,226,5.0,5.0,69,0.00,,,0.00,Wunderground v.1.15,2013-01-24 13:10:00,
2013-01-24 09:20:00,-3.5,-11.1,29.87,SW,230,4.0,4.0,69,0.00,,,0.00,Wunderground v.1.15,2013-01-24 13:20:00,
2013-01-24 09:30:00,-3.1,-11.3,29.86,SW,222,7.0,22.0,67,0.00,,,0.00,Wunderground v.1.15,2013-01-24 13:30:00,
2013-01-24 09:40:00,-2.2,-11.1,29.86,West,259,6.0,22.0,65,0.00,,,0.00,Wunderground v.1.15,2013-01-24 13:40:00,
2013-01-24 09:50:00,-1.6,-11.5,29.87,SW,224,7.0,7.0,62,0.00,,,0.00,Wunderground v.1.15,2013-01-24 13:50:00,
2013-01-24 10:00:00,-1.2,-11.4,29.87,West,259,5.0,5.0,61,0.00,,,0.00,Wunderground v.1.15,2013-01-24 14:00:00,
2013-01-24 10:10:00,-1.0,-11.2,29.87,West,273,6.0,22.0,61,0.00,,,0.00,Wunderground v.1.15,2013-01-24 14:10:00,
2013-01-24 10:20:00,0.0,-10.3,29.86,SW,226,3.0,3.0,61,0.00,,,0.00,Wunderground v.1.15,2013-01-24 14:20:00,
2013-01-24 10:30:00,-0.1,-11.0,29.86,SW,218,5.0,22.0,59,0.00,,,0.00,Wunderground v.1.15,2013-01-24 14:30:00,
2013-01-24 10:40:00,-0.2,-11.1,29.87,SW,228,5.0,22.0,59,0.00,,,0.00,Wunderground v.1.15,2013-01-24 14:40:00,
2013-01-24 10:50:00,0.2,-10.4,29.86,South,186,4.0,4.0,60,0.00,,,0.00,Wunderground v.1.15,2013-01-24 14:50:00,
2013-01-24 11:00:00,0.4,-10.9,29.86,West,263,4.0,4.0,58,0.00,,,0.00,Wunderground v.1.15,2013-01-24 15:00:00,
2013-01-24 11:10:00,-0.1,-11.0,29.86,West,267,6.0,6.0,59,0.00,,,0.00,Wunderground v.1.15,2013-01-24 15:10:00,
2013-01-24 11:20:00,-0.3,-10.9,29.86,SSW,193,7.0,22.0,60,0.00,,,0.00,Wunderground v.1.15,2013-01-24 15:20:00,
2013-01-24 11:30:00,0.2,-10.4,29.85,SW,222,5.0,5.0,60,0.00,,,0.00,Wunderground v.1.15,2013-01-24 15:30:00,
2013-01-24 11:40:00,0.5,-10.1,29.85,SW,233,5.0,22.0,60,0.00,,,0.00,Wunderground v.1.15,2013-01-24 15:40:00,
2013-01-24 11:50:00,0.5,-9.1,29.85,WSW,240,5.0,22.0,63,0.00,,,0.00,Wunderground v.1.15,2013-01-24 15:50:00,
2013-01-24 12:00:00,0.2,-9.4,29.85,SSW,212,6.0,22.0,63,0.00,,,0.00,Wunderground v.1.15,2013-01-24 16:00:00,
2013-01-24 12:10:00,0.6,-9.1,29.85,SSW,207,4.0,4.0,63,0.00,,,0.00,Wunderground v.1.15,2013-01-24 16:10:00,
2013-01-24 12:20:00,1.4,-9.6,29.84,South,179,3.0,22.0,59,0.00,,,0.00,Wunderground v.1.15,2013-01-24 16:20:00,
2013-01-24 12:30:00,1.5,-9.5,29.85,WSW,255,5.0,5.0,59,0.00,,,0.00,Wunderground v.1.15,2013-01-24 16:30:00,
2013-01-24 12:40:00,1.5,-9.9,29.84,South,188,5.0,22.0,58,0.00,,,0.00,Wunderground v.1.15,2013-01-24 16:40:00,
2013-01-24 12:50:00,1.3,-9.7,29.84,NNW,333,5.0,5.0,59,0.00,,,0.00,Wunderground v.1.15,2013-01-24 16:50:00,
2013-01-24 13:00:00,1.0,-10.7,29.84,West,273,4.0,22.0,57,0.00,,,0.00,Wunderground v.1.15,2013-01-24 17:00:00,
2013-01-24 13:10:00,1.4,-11.4,29.84,SW,228,5.0,22.0,54,0.00,,,0.00,Wunderground v.1.15,2013-01-24 17:10:00,
2013-01-24 13:20:00,1.7,-10.8,29.83,SW,214,5.0,22.0,55,0.00,,,0.00,Wunderground v.1.15,2013-01-24 17:20:00,
2013-01-24 13:30:00,1.6,-11.6,29.84,WNW,292,6.0,22.0,53,0.00,,,0.00,Wunderground v.1.15,2013-01-24 17:30:00,
2013-01-24 13:40:00,1.4,-11.8,29.84,SW,231,4.0,4.0,53,0.00,,,0.00,Wunderground v.1.15,2013-01-24 17:40:00,
2013-01-24 13:50:00,1.2,-10.9,29.84,WNW,292,5.0,22.0,56,0.00,,,0.00,Wunderground v.1.15,2013-01-24 17:50:00,
2013-01-24 14:00:00,0.9,-9.1,29.83,SSW,204,5.0,22.0,62,0.00,,,0.00,Wunderground v.1.15,2013-01-24 18:00:00,
2013-01-24 14:10:00,1.1,-9.9,29.84,West,277,3.0,22.0,59,0.00,,,0.00,Wunderground v.1.15,2013-01-24 18:10:00,
2013-01-24 14:20:00,0.6,-10.0,29.84,West,262,4.0,22.0,60,0.00,,,0.00,Wunderground v.1.15,2013-01-24 18:20:00,
2013-01-24 14:30:00,0.9,-9.4,29.84,WSW,241,3.0,3.0,61,0.00,,,0.00,Wunderground v.1.15,2013-01-24 18:30:00,
2013-01-24 14:40:00,1.8,-8.6,29.84,WSW,243,3.0,3.0,61,0.00,,,0.00,Wunderground v.1.15,2013-01-24 18:40:00,
2013-01-24 14:50:00,1.7,-10.8,29.84,WSW,247,4.0,22.0,55,0.00,,,0.00,Wunderground v.1.15,2013-01-24 18:50:00,
2013-01-24 15:00:00,1.4,-9.6,29.85,SW,222,5.0,5.0,59,0.00,,,0.00,Wunderground v.1.15,2013-01-24 19:00:00,
2013-01-24 15:10:00,1.8,-9.2,29.85,NW,312,3.0,22.0,59,0.00,,,0.00,Wunderground v.1.15,2013-01-24 19:10:00,
2013-01-24 15:20:00,1.9,-9.2,29.85,WSW,252,4.0,4.0,59,0.00,,,0.00,Wunderground v.1.15,2013-01-24 19:20:00,
2013-01-24 15:30:00,1.5,-9.2,29.85,West,267,3.0,3.0,60,0.00,,,0.00,Wunderground v.1.15,2013-01-24 19:30:00,
2013-01-24 15:40:00,1.1,-9.2,29.85,North,9,2.0,22.0,61,0.00,,,0.00,Wunderground v.1.15,2013-01-24 19:40:00,
2013-01-24 15:50:00,1.0,-8.0,29.85,WSW,243,1.0,22.0,65,0.00,,,0.00,Wunderground v.1.15,2013-01-24 19:50:00,
2013-01-24 16:00:00,1.6,-7.5,29.85,WNW,283,1.0,22.0,65,0.00,,,0.00,Wunderground v.1.15,2013-01-24 20:00:00,
2013-01-24 16:10:00,1.4,-9.3,29.84,WSW,246,2.0,22.0,60,0.00,,,0.00,Wunderground v.1.15,2013-01-24 20:10:00,
2013-01-24 16:20:00,1.0,-9.7,29.85,WSW,257,2.0,22.0,60,0.00,,,0.00,Wunderground v.1.15,2013-01-24 20:20:00,
2013-01-24 16:30:00,0.8,-8.9,29.85,SSW,212,2.0,22.0,63,0.00,,,0.00,Wunderground v.1.15,2013-01-24 20:30:00,
2013-01-24 16:40:00,0.4,-8.6,29.85,SW,231,2.0,2.0,65,0.00,,,0.00,Wunderground v.1.15,2013-01-24 20:40:00,
2013-01-24 16:50:00,0.0,-8.4,29.85,South,180,2.0,22.0,67,0.00,,,0.00,Wunderground v.1.15,2013-01-24 20:50:00,
2013-01-24 17:00:00,-0.4,-8.8,29.85,South,189,1.0,1.0,67,0.00,,,0.00,Wunderground v.1.15,2013-01-24 21:00:00,
2013-01-24 17:10:00,-0.7,-9.3,29.85,SSW,198,1.0,1.0,66,0.00,,,0.00,Wunderground v.1.15,2013-01-24 21:10:00,
2013-01-24 17:20:00,-0.7,-9.7,29.86,WSW,247,1.0,22.0,65,0.00,,,0.00,Wunderground v.1.15,2013-01-24 21:20:00,
2013-01-24 17:30:00,-0.8,-9.8,29.86,WSW,245,2.0,22.0,65,0.00,,,0.00,Wunderground v.1.15,2013-01-24 21:30:00,
2013-01-24 17:40:00,-0.9,-9.8,29.86,WSW,250,1.0,22.0,65,0.00,,,0.00,Wunderground v.1.15,2013-01-24 21:40:00,
2013-01-24 17:50:00,-1.1,-10.0,29.86,WSW,245,1.0,1.0,65,0.00,,,0.00,Wunderground v.1.15,2013-01-24 21:50:00,
2013-01-24 18:00:00,-1.1,-9.7,29.86,WSW,242,1.0,22.0,66,0.00,,,0.00,Wunderground v.1.15,2013-01-24 22:00:00,
2013-01-24 18:10:00,-1.2,-9.8,29.86,SW,231,2.0,2.0,66,0.00,,,0.00,Wunderground v.1.15,2013-01-24 22:10:00,
2013-01-24 18:20:00,-1.4,-9.7,29.87,SSW,212,1.0,22.0,67,0.00,,,0.00,Wunderground v.1.15,2013-01-24 22:20:00,
2013-01-24 18:30:00,-1.4,-9.4,29.87,South,186,2.0,2.0,68,0.00,,,0.00,Wunderground v.1.15,2013-01-24 22:30:00,
2013-01-24 18:40:00,-1.6,-9.6,29.88,SW,222,1.0,22.0,68,0.00,,,0.00,Wunderground v.1.15,2013-01-24 22:40:00,
2013-01-24 18:50:00,-1.5,-9.5,29.88,SW,226,2.0,22.0,68,0.00,,,0.00,Wunderground v.1.15,2013-01-24 22:50:00,
2013-01-24 19:00:00,-1.3,-9.9,29.89,SW,217,2.0,22.0,66,0.00,,,0.00,Wunderground v.1.15,2013-01-24 23:00:00,
2013-01-24 19:10:00,-1.1,-10.0,29.89,WSW,249,2.0,22.0,65,0.00,,,0.00,Wunderground v.1.15,2013-01-24 23:10:00,
2013-01-24 19:20:00,-0.9,-10.2,29.89,West,269,3.0,22.0,64,0.00,,,0.00,Wunderground v.1.15,2013-01-24 23:20:00,
2013-01-24 19:30:00,-0.9,-10.2,29.90,South,178,2.0,2.0,64,0.00,,,0.00,Wunderground v.1.15,2013-01-24 23:30:00,
2013-01-24 19:40:00,-1.1,-10.4,29.90,WSW,248,2.0,22.0,64,0.00,,,0.00,Wunderground v.1.15,2013-01-24 23:40:00,
2013-01-24 19:50:00,-0.8,-10.4,29.90,SW,229,3.0,3.0,63,0.00,,,0.00,Wunderground v.1.15,2013-01-24 23:50:00,
2013-01-24 20:00:00,-0.5,-10.8,29.90,WSW,246,3.0,3.0,61,0.00,,,0.00,Wunderground v.1.15,2013-01-25 00:00:00,
2013-01-24 20:10:00,-0.5,-10.8,29.91,SW,236,2.0,22.0,61,0.00,,,0.00,Wunderground v.1.15,2013-01-25 00:10:00,
2013-01-24 20:20:00,-0.5,-10.8,29.91,SW,218,3.0,22.0,61,0.00,,,0.00,Wunderground v.1.15,2013-01-25 00:20:00,
2013-01-24 20:30:00,-0.6,-10.8,29.91,West,267,4.0,4.0,61,0.00,,,0.00,Wunderground v.1.15,2013-01-25 00:30:00,
2013-01-24 20:40:00,-0.7,-10.9,29.91,SSW,194,3.0,22.0,61,0.00,,,0.00,Wunderground v.1.15,2013-01-25 00:40:00,
2013-01-24 20:50:00,-0.8,-10.7,29.92,WSW,243,2.0,22.0,62,0.00,,,0.00,Wunderground v.1.15,2013-01-25 00:50:00,
2013-01-24 21:00:00,-1.0,-11.6,29.92,WSW,247,3.0,22.0,60,0.00,,,0.00,Wunderground v.1.15,2013-01-25 01:00:00,
2013-01-24 21:10:00,-1.2,-11.8,29.92,WSW,253,3.0,22.0,60,0.00,,,0.00,Wunderground v.1.15,2013-01-25 01:10:00,
2013-01-24 21:20:00,-1.5,-11.7,29.91,SSW,211,3.0,22.0,61,0.00,,,0.00,Wunderground v.1.15,2013-01-25 01:20:00,
2013-01-24 21:30:00,-1.8,-12.0,29.91,West,263,3.0,22.0,61,0.00,,,0.00,Wunderground v.1.15,2013-01-25 01:30:00,
2013-01-24 21:40:00,-2.1,-11.9,29.91,WSW,248,3.0,3.0,62,0.00,,,0.00,Wunderground v.1.15,2013-01-25 01:40:00,
2013-01-24 21:50:00,-2.3,-12.5,29.91,West,281,3.0,3.0,61,0.00,,,0.00,Wunderground v.1.15,2013-01-25 01:50:00,
2013-01-24 22:00:00,-2.5,-12.7,29.91,West,276,3.0,3.0,61,0.00,,,0.00,Wunderground v.1.15,2013-01-25 02:00:00,
2013-01-24 22:10:00,-2.7,-12.8,29.90,SW,217,3.0,22.0,61,0.00,,,0.00,Wunderground v.1.15,2013-01-25 02:10:00,
2013-01-24 22:20:00,-2.8,-12.6,29.90,SW,232,3.0,22.0,62,0.00,,,0.00,Wunderground v.1.15,2013-01-25 02:20:00,
2013-01-24 22:30:00,-2.8,-12.3,29.90,WSW,257,4.0,4.0,63,0.00,,,0.00,Wunderground v.1.15,2013-01-25 02:30:00,
2013-01-24 22:40:00,-2.9,-12.1,29.90,WSW,243,2.0,22.0,64,0.00,,,0.00,Wunderground v.1.15,2013-01-25 02:40:00,
2013-01-24 22:50:00,-3.0,-12.5,29.91,WNW,302,4.0,4.0,63,0.00,,,0.00,Wunderground v.1.15,2013-01-25 02:50:00,
2013-01-24 23:00:00,-3.1,-12.6,29.90,West,262,3.0,3.0,63,0.00,,,0.00,Wunderground v.1.15,2013-01-25 03:00:00,
2013-01-24 23:10:00,-3.2,-12.7,29.90,West,281,4.0,4.0,63,0.00,,,0.00,Wunderground v.1.15,2013-01-25 03:10:00,
2013-01-24 23:20:00,-3.3,-12.8,29.90,West,280,4.0,4.0,63,0.00,,,0.00,Wunderground v.1.15,2013-01-25 03:20:00,
2013-01-24 23:30:00,-3.4,-12.6,29.90,WSW,246,4.0,4.0,64,0.00,,,0.00,Wunderground v.1.15,2013-01-25 03:30:00,
2013-01-24 23:40:00,-3.5,-12.3,29.90,WSW,239,4.0,4.0,65,0.00,,,0.00,Wunderground v.1.15,2013-01-25 03:40:00,
2013-01-24 23:50:00,-3.8,-12.3,29.90,SW,225,3.0,3.0,66,0.00,,,0.00,Wunderground v.1.15,2013-01-25 03:50:00,